MST,Max TemperatureF,Mean TemperatureF,Min TemperatureF,Max Dew PointF,MeanDew PointF,Min DewpointF,Max Humidity, Mean Humidity, Min Humidity, Max Sea Level PressureIn, Mean Sea Level PressureIn, Min Sea Level PressureIn, Max VisibilityMiles, Mean VisibilityMiles, Min VisibilityMiles, Max Wind SpeedMPH, Mean Wind SpeedMPH, Max Gust SpeedMPH,PrecipitationIn, CloudCover, Events, WindDirDegrees
2013-2-1,36,30,23,29,25,17,78,67,56,30.24,30.08,29.98,10,8,2,28,12,36,0.01,6,Snow,318
2013-2-2,37,27,17,21,15,9,63,54,44,30.35,30.30,30.22,10,10,10,22,6,28,0.00,0,,267
2013-2-3,45,33,21,20,15,10,60,45,30,30.22,30.02,29.91,10,10,10,18,7,25,0.00,0,,262
2013-2-4,41,32,23,22,17,13,63,50,37,29.95,29.88,29.85,10,10,10,17,6,20,0.00,5,,202
2013-2-5,38,31,24,25,22,17,69,59,48,30.03,29.91,29.76,10,10,10,21,7,25,0.00,2,,205
2013-2-6,39,33,26,25,20,13,69,58,47,30.13,29.93,29.75,10,10,10,24,10,38,0.00,4,,307
2013-2-7,37,29,21,23,16,10,69,60,50,30.14,30.06,29.91,10,10,10,12,4,12,0.00,0,,262
2013-2-8,41,32,23,19,14,6,63,48,33,29.96,29.91,29.86,10,10,10,15,6,18,0.00,2,,319
2013-2-9,33,29,25,25,22,16,92,75,58,29.88,29.79,29.74,10,5,1,24,10,31,0.02,8,Snow,324
2013-2-10,26,18,10,23,16,6,92,80,67,30.19,29.90,29.75,10,3,0,43,25,52,0.01,6,Fog-Snow,340
2013-2-11,28,16,4,11,4,-4,91,68,44,30.20,30.11,30.01,10,10,10,18,7,22,0.00,2,,221
2013-2-12,36,27,17,17,11,2,58,47,36,30.12,30.06,29.95,10,10,10,12,5,13,0.00,2,,238
2013-2-13,45,34,23,29,24,13,92,64,36,30.04,29.93,29.83,10,5,0,33,13,45,0.01,6,Fog-Snow,334
2013-2-14,28,24,19,25,16,7,92,71,50,30.38,30.19,30.00,10,4,0,35,15,41,0.02,8,Fog-Snow,330
2013-2-15,32,26,20,21,18,13,92,74,55,30.42,30.28,30.20,10,4,0,30,10,38,0.04,7,Fog-Snow,333
2013-2-16,47,36,24,27,21,16,63,54,45,30.18,30.03,29.76,10,10,10,13,5,15,0.00,0,,208
2013-2-17,42,34,26,28,22,11,85,59,32,29.93,29.74,29.61,10,5,0,40,20,51,T,6,Fog-Snow,331
2013-2-18,26,19,12,22,17,4,88,80,71,30.18,30.01,29.86,10,5,0,29,12,38,0.01,6,Fog-Snow,327
2013-2-19,38,24,10,18,12,7,83,64,44,30.14,29.92,29.66,10,10,10,21,8,24,0.00,0,,170
2013-2-20,24,19,14,19,16,10,88,77,65,29.91,29.82,29.70,10,10,9,12,6,,0.00,5,,331
2013-2-21,24,19,14,17,14,11,92,83,73,30.01,29.95,29.81,10,10,8,17,5,24,0.00,6,,331
2013-2-22,33,22,10,14,9,3,88,64,39,30.02,29.92,29.73,10,10,10,12,5,12,0.00,1,,274
2013-2-23,36,30,23,28,21,5,92,64,35,29.91,29.73,29.61,10,5,0,37,12,49,0.01,8,Fog-Snow,330
2013-2-24,29,22,14,21,17,4,88,69,50,30.18,30.02,29.85,10,6,1,33,16,41,T,4,Snow,329
2013-2-25,39,26,13,22,11,-1,68,51,34,30.08,29.93,29.82,10,10,10,31,9,41,0.00,1,,230
2013-2-26,31,26,21,24,18,15,85,69,53,30.25,30.06,29.85,10,9,2,33,20,43,T,5,Snow,334
2013-2-27,33,23,13,15,10,3,84,62,39,30.31,30.27,30.22,10,10,10,10,5,12,0.00,2,,232
2013-2-28,36,28,19,18,15,11,68,53,38,30.30,30.26,30.22,10,10,10,14,5,17,0.00,4,,303